Change the Weather History Date:

Tuesday, January 8, 2013

  Actual Average Record
Temperature  
Mean Temperature 36 °F 35 °F  
Max Temperature 48 °F 45 °F 64 °F (1990)
Min Temperature 23 °F 25 °F -19 °F (1890)
Degree Days  
Heating Degree Days 29 30  
Month to date heating degree days 317 242  
Since 1 July heating degree days 1993 2266  
Cooling Degree Days 0 0  
Month to date cooling degree days 0 0  
Year to date cooling degree days 0 0  
Moisture  
Dew Point 26 °F    
Average Humidity 71    
Maximum Humidity 92    
Minimum Humidity 50    
Precipitation  
Precipitation 0.00 in 0.03 in 1.00 in (1909)
Month to date precipitation 0.00 0.29  
Year to date precipitation 0.00 0.29  
Snow  
Snow 0.00 in 0.20 in 10.50 in (2005)
Month to date snowfall 0.0 1.9  
Since 1 July snowfall 8.0 10.3  
Snow Depth T in    
Sea Level Pressure  
Sea Level Pressure 30.31 in    
Wind  
Wind Speed 1 mph (South)    
Max Wind Speed 6 mph    
Max Gust Speed 9 mph    
Visibility 9 miles    
Events      
T = Trace of Precipitation, MM = Missing Value Source: NWS Daily Summary

Daily Weather History Graph

Daily Weather History Graph

Search for Another Location

Airport or City:

Trip Planner

Search our weather history database for the weather conditions in past years. The results will help you decide how hot, cold, wet, or windy it might be!

Date:

Astronomy

Jan. 08, 2013 Rise Set
Actual Time 7:19 AM PST 4:52 PM PST
Civil Twilight 6:49 AM PST 5:22 PM PST
Nautical Twilight 6:16 AM PST 5:56 PM PST
Astronomical Twilight 5:43 AM PST 6:28 PM PST
Moon 3:58 AM PST (1/8) 1:59 PM PST (1/8)
Length of Visible Light 10h 33m
Length of Day
9h 33m
Waning Crescent, 13% of the Moon is Illuminated
Jan 8
Waning Crescent
Jan 11
New
Jan 18
First Quarter
Jan 26
Full
Feb 3
Last Quarter

Hourly Weather History & Observations

Time (PST) Temp. Windchill Dew Point Humidity Pressure Visibility Wind Dir Wind Speed Gust Speed Precip Events Conditions
12:55 AM 27.0 °F - 23.0 °F 85% 30.32 in 10.0 mi Calm Calm - N/A   Partly Cloudy
1:55 AM 26.1 °F 21.9 °F 23.0 °F 88% 30.31 in 8.0 mi ENE 3.5 mph - N/A   Partly Cloudy
2:55 AM 25.0 °F - 21.9 °F 88% 30.34 in 8.0 mi Calm Calm - N/A   Clear
3:55 AM 25.0 °F - 21.9 °F 88% 30.33 in 8.0 mi Calm Calm - N/A   Scattered Clouds
4:55 AM 26.1 °F - 21.9 °F 84% 30.32 in 8.0 mi Calm Calm - N/A   Mostly Cloudy
5:55 AM 26.1 °F - 21.9 °F 84% 30.33 in 8.0 mi Calm Calm - N/A   Mostly Cloudy
6:55 AM 25.0 °F - 21.0 °F 85% 30.36 in 8.0 mi Calm Calm - N/A   Mostly Cloudy
7:55 AM 24.1 °F - 21.0 °F 88% 30.36 in 8.0 mi Calm Calm - N/A   Mostly Cloudy
8:55 AM 30.0 °F - 24.1 °F 79% 30.36 in 8.0 mi Calm Calm - N/A   Mostly Cloudy
9:55 AM 34.0 °F - 26.1 °F 73% 30.38 in 8.0 mi Calm Calm - N/A   Scattered Clouds
10:55 AM 37.0 °F 34.5 °F 27.0 °F 67% 30.34 in 8.0 mi South 3.5 mph - N/A   Scattered Clouds
11:55 AM 41.0 °F - 28.9 °F 62% 30.30 in 10.0 mi Calm Calm - N/A   Partly Cloudy
12:55 PM 44.1 °F - 30.0 °F 58% 30.27 in 10.0 mi Calm Calm - N/A   Scattered Clouds
1:55 PM 46.0 °F 43.9 °F 30.9 °F 56% 30.27 in 10.0 mi SSE 4.6 mph - N/A   Partly Cloudy
2:55 PM 46.9 °F - 30.9 °F 54% 30.27 in 10.0 mi Calm Calm - N/A   Partly Cloudy
3:55 PM 48.0 °F - 30.9 °F 52% 30.27 in 10.0 mi Calm Calm - N/A   Clear
4:55 PM 44.1 °F - 30.9 °F 60% 30.27 in 10.0 mi Calm Calm - N/A   Partly Cloudy
5:55 PM 37.0 °F - 28.9 °F 73% 30.28 in 10.0 mi Calm Calm - N/A   Partly Cloudy
6:55 PM 36.0 °F - 28.9 °F 76% 30.30 in 10.0 mi Calm Calm - N/A   Clear
7:55 PM 37.0 °F - 30.0 °F 76% 30.30 in 10.0 mi Calm Calm - N/A   Clear
8:55 PM 35.6 °F 31.7 °F 28.4 °F 75% 30.25 in 10.0 mi West 4.6 mph - N/A   Clear
9:55 PM 33.1 °F - 28.0 °F 82% 30.28 in 10.0 mi Calm Calm - N/A   Clear
10:55 PM 30.0 °F - 27.0 °F 88% 30.27 in 8.0 mi Calm Calm - N/A   Scattered Clouds
11:55 PM 30.0 °F - 27.0 °F 88% 30.25 in 9.0 mi Calm Calm - N/A   Scattered Clouds